When you browse on this site, cookies collect data to enhance your experience and personalize the content and advertising you see.
Visit our Privacy Policy to learn more. By continuing to use the site, you agree to this use of cookies and data.

Tiempo cada hora Koudougou

Hoy, 20 Septiembre, Domingo

Tiempo Temperatura Precipitaciones Viento Presión Humedad
00:00 +29°C° 0 mm 2 mps 733 mmHg 68%
01:00 +28°C° 0 mm 2 mps 732 mmHg 70%
02:00 +28°C° 0 mm 3 mps 731 mmHg 71%
03:00 +27°C° 0 mm 3 mps 731 mmHg 72%
04:00 +27°C° 0 mm 3 mps 731 mmHg 73%
05:00 +27°C° 0 mm 3 mps 731 mmHg 75%
06:00 +26°C° 0 mm 3 mps 732 mmHg 76%
07:00 +28°C° 0 mm 3 mps 732 mmHg 72%
08:00 +29°C° 0 mm 3 mps 733 mmHg 68%
09:00 +31°C° 0 mm 3 mps 733 mmHg 63%
10:00 +33°C° 0 mm 3 mps 733 mmHg 58%
11:00 +35°C° 0 mm 3 mps 733 mmHg 53%
12:00 +36°C° 0 mm 3 mps 733 mmHg 47%
13:00 +37°C° 0 mm 3 mps 732 mmHg 45%
14:00 +37°C° 0 mm 3 mps 731 mmHg 44%
15:00 +38°C° 0 mm 3 mps 730 mmHg 42%
16:00 +36°C° 0 mm 3 mps 730 mmHg 48%
17:00 +35°C° 0 mm 3 mps 730 mmHg 54%
18:00 +33°C° 0 mm 3 mps 730 mmHg 60%
19:00 +31°C° 0 mm 3 mps 730 mmHg 64%
20:00 +30°C° 0 mm 4 mps 731 mmHg 68%
21:00 +29°C° 0 mm 5 mps 732 mmHg 72%
22:00 +29°C° 0 mm 5 mps 732 mmHg 74%
23:00 +28°C° 0 mm 6 mps 732 mmHg 76%

Mañana, 21 Septiembre, Lunes

Tiempo Temperatura Precipitaciones Viento Presión Humedad
00:00 +28°C° 0 mm 6 mps 732 mmHg 78%
01:00 +27°C° 0 mm 6 mps 732 mmHg 80%
02:00 +27°C° 0 mm 5 mps 731 mmHg 83%
03:00 +27°C° 0 mm 5 mps 731 mmHg 85%
04:00 +26°C° 0 mm 5 mps 731 mmHg 87%
05:00 +26°C° 0 mm 4 mps 731 mmHg 88%
06:00 +26°C° 0 mm 4 mps 732 mmHg 90%
07:00 +27°C° 0 mm 4 mps 732 mmHg 85%
08:00 +28°C° 0 mm 5 mps 733 mmHg 80%
09:00 +29°C° 0 mm 5 mps 734 mmHg 75%
10:00 +32°C° 0 mm 5 mps 733 mmHg 70%
11:00 +33°C° 0 mm 5 mps 733 mmHg 64%
12:00 +35°C° 0 mm 5 mps 733 mmHg 58%
13:00 +35°C° 0 mm 5 mps 732 mmHg 56%
14:00 +35°C° 0 mm 5 mps 732 mmHg 54%
15:00 +36°C° 0 mm 4 mps 731 mmHg 52%
16:00 +35°C° 0 mm 4 mps 731 mmHg 58%
17:00 +33°C° 0 mm 4 mps 731 mmHg 64%
18:00 +31°C° 0 mm 3 mps 731 mmHg 70%
19:00 +30°C° 0 mm 3 mps 731 mmHg 72%
20:00 +29°C° 0 mm 3 mps 732 mmHg 75%
21:00 +29°C° 0 mm 3 mps 733 mmHg 78%
22:00 +28°C° 0.5 mm 3 mps 733 mmHg 81%
23:00 +28°C° 0.5 mm 3 mps 733 mmHg 84%

Pasado mañana, 22 Septiembre, Martes

Tiempo Temperatura Precipitaciones Viento Presión Humedad
00:00 +27°C° 0.5 mm 4 mps 733 mmHg 87%
01:00 +26°C° 0.2 mm 3 mps 733 mmHg 89%
02:00 +26°C° 0.2 mm 3 mps 732 mmHg 91%
03:00 +26°C° 0.2 mm 3 mps 732 mmHg 93%
04:00 +26°C° 0.2 mm 3 mps 732 mmHg 93%
05:00 +25°C° 0.2 mm 3 mps 732 mmHg 93%
06:00 +25°C° 0.2 mm 3 mps 732 mmHg 93%
07:00 +27°C° 0.1 mm 4 mps 733 mmHg 87%
08:00 +28°C° 0.1 mm 4 mps 733 mmHg 82%
09:00 +29°C° 0.1 mm 5 mps 734 mmHg 76%
10:00 +32°C° 0 mm 4 mps 734 mmHg 67%
11:00 +34°C° 0 mm 4 mps 733 mmHg 59%
12:00 +35°C° 0 mm 3 mps 733 mmHg 50%
13:00 +36°C° 0 mm 3 mps 732 mmHg 47%
14:00 +36°C° 0 mm 2 mps 732 mmHg 44%
15:00 +37°C° 0 mm 2 mps 731 mmHg 41%
16:00 +36°C° 0 mm 2 mps 731 mmHg 45%
17:00 +34°C° 0 mm 2 mps 731 mmHg 50%
18:00 +32°C° 0 mm 2 mps 731 mmHg 55%
19:00 +31°C° 0.5 mm 2 mps 732 mmHg 61%
20:00 +30°C° 0.5 mm 3 mps 732 mmHg 66%
21:00 +29°C° 0.5 mm 3 mps 733 mmHg 72%
22:00 +28°C° 0.2 mm 3 mps 733 mmHg 73%
23:00 +28°C° 0.2 mm 2 mps 733 mmHg 74%

23 Septiembre, Miércoles

Tiempo Temperatura Precipitaciones Viento Presión Humedad
00:00 +28°C° 0.2 mm 2 mps 733 mmHg 76%
01:00 +28°C° 0 mm 2 mps 733 mmHg 76%
02:00 +27°C° 0 mm 2 mps 732 mmHg 77%
03:00 +27°C° 0 mm 2 mps 732 mmHg 77%
04:00 +27°C° 0.1 mm 2 mps 732 mmHg 79%
05:00 +26°C° 0.1 mm 2 mps 732 mmHg 81%
06:00 +26°C° 0.1 mm 2 mps 733 mmHg 82%
07:00 +27°C° 0 mm 2 mps 733 mmHg 77%
08:00 +29°C° 0 mm 3 mps 734 mmHg 72%
09:00 +30°C° 0 mm 3 mps 734 mmHg 67%
10:00 +31°C° 0.1 mm 3 mps 734 mmHg 63%
11:00 +32°C° 0.1 mm 2 mps 733 mmHg 58%
12:00 +35°C° 0.1 mm 2 mps 733 mmHg 54%
13:00 +35°C° 0.3 mm 3 mps 732 mmHg 52%
14:00 +35°C° 0.3 mm 3 mps 732 mmHg 50%
15:00 +35°C° 0.3 mm 3 mps 731 mmHg 48%
16:00 +34°C° 0 mm 4 mps 731 mmHg 54%
17:00 +33°C° 0 mm 4 mps 731 mmHg 60%
18:00 +30°C° 0 mm 4 mps 731 mmHg 66%
19:00 +30°C° 0 mm 3 mps 732 mmHg 68%
20:00 +29°C° 0 mm 3 mps 732 mmHg 71%
21:00 +28°C° 0 mm 3 mps 733 mmHg 73%
22:00 +28°C° 0.3 mm 3 mps 733 mmHg 76%
23:00 +27°C° 0.3 mm 3 mps 733 mmHg 78%

24 Septiembre, Jueves

Tiempo Temperatura Precipitaciones Viento Presión Humedad
00:00 +26°C° 0.3 mm 2 mps 733 mmHg 80%
01:00 +26°C° 1.4 mm 2 mps 733 mmHg 83%
02:00 +26°C° 1.4 mm 2 mps 733 mmHg 86%
03:00 +25°C° 1.4 mm 1 mps 733 mmHg 88%
04:00 +25°C° 0.5 mm 1 mps 733 mmHg 88%
05:00 +25°C° 0.5 mm 1 mps 733 mmHg 88%
06:00 +25°C° 0.5 mm 1 mps 733 mmHg 88%
07:00 +26°C° 0.1 mm 2 mps 734 mmHg 84%
08:00 +27°C° 0.1 mm 2 mps 734 mmHg 79%
09:00 +28°C° 0.1 mm 3 mps 734 mmHg 75%
10:00 +30°C° 0 mm 3 mps 734 mmHg 68%
11:00 +33°C° 0 mm 3 mps 733 mmHg 62%
12:00 +34°C° 0 mm 3 mps 733 mmHg 56%
13:00 +34°C° 0 mm 3 mps 732 mmHg 54%
14:00 +35°C° 0 mm 2 mps 732 mmHg 53%
15:00 +34°C° 0 mm 1 mps 731 mmHg 51%
16:00 +33°C° 0 mm 1 mps 731 mmHg 55%
17:00 +32°C° 0 mm 1 mps 731 mmHg 59%
18:00 +31°C° 0 mm 1 mps 731 mmHg 64%
19:00 +31°C° 0.1 mm 1 mps 732 mmHg 64%
20:00 +30°C° 0.1 mm 1 mps 732 mmHg 65%
21:00 +30°C° 0.1 mm 2 mps 733 mmHg 66%
22:00 +29°C° 0.1 mm 2 mps 733 mmHg 69%
23:00 +29°C° 0.1 mm 2 mps 733 mmHg 72%

25 Septiembre, Viernes

Tiempo Temperatura Precipitaciones Viento Presión Humedad
00:00 +28°C° 0.1 mm 3 mps 733 mmHg 75%
01:00 +28°C° 0.1 mm 3 mps 732 mmHg 76%
02:00 +27°C° 0.1 mm 3 mps 732 mmHg 78%
03:00 +27°C° 0.1 mm 3 mps 732 mmHg 80%
04:00 +27°C° 0 mm 3 mps 732 mmHg 81%
05:00 +27°C° 0 mm 3 mps 732 mmHg 82%
06:00 +26°C° 0 mm 2 mps 732 mmHg 83%
07:00 +28°C° 0 mm 3 mps 733 mmHg 78%
08:00 +29°C° 0 mm 3 mps 733 mmHg 72%
09:00 +31°C° 0 mm 3 mps 734 mmHg 66%
10:00 +33°C° 0 mm 3 mps 733 mmHg 61%
11:00 +34°C° 0 mm 2 mps 733 mmHg 57%
12:00 +35°C° 0 mm 2 mps 733 mmHg 52%
13:00 +35°C° 0.3 mm 2 mps 733 mmHg 52%
14:00 +35°C° 0.3 mm 2 mps 732 mmHg 52%
15:00 +35°C° 0.3 mm 2 mps 732 mmHg 52%
16:00 +33°C° 1 mm 3 mps 731 mmHg 61%
17:00 +30°C° 1 mm 4 mps 731 mmHg 70%
18:00 +28°C° 1 mm 4 mps 731 mmHg 80%
19:00 +27°C° 0.3 mm 5 mps 731 mmHg 82%
20:00 +26°C° 0.3 mm 5 mps 732 mmHg 84%
21:00 +26°C° 0.3 mm 5 mps 732 mmHg 87%
22:00 +25°C° 0 mm 4 mps 732 mmHg 86%
23:00 +25°C° 0 mm 4 mps 732 mmHg 85%
Mostrar más